Change the Weather History Date:

Saturday, November 23, 2013

  Actual Average Record
Temperature  
Mean Temperature 77 °F 72 °F  
Max Temperature 84 °F 79 °F 89 °F (1948)
Min Temperature 69 °F 64 °F 44 °F (1944)
Degree Days  
Heating Degree Days 0 1  
Month to date heating degree days 0 2  
Since 1 July heating degree days 0 3  
Cooling Degree Days 12 7  
Month to date cooling degree days 311 197  
Year to date cooling degree days 4158 3818  
Growing Degree Days 28 (Base 50)    
Moisture  
Dew Point 67 °F    
Average Humidity 68    
Maximum Humidity 74    
Minimum Humidity 62    
Precipitation  
Precipitation 0.00 in 0.13 in 2.55 in (1977)
Month to date precipitation 1.54 3.83  
Year to date precipitation 59.40 58.03  
Snow  
Snow 0.00 in - - ()
Month to date snowfall 0.0  
Since 1 July snowfall 0.0  
Since 1 September snowfall 0.0  
Snow Depth 0.00 in    
Sea Level Pressure  
Sea Level Pressure 30.04 in    
Wind  
Wind Speed 8 mph (ENE)    
Max Wind Speed 16 mph    
Max Gust Speed 23 mph    
Visibility 10 miles    
Events      
T = Trace of Precipitation, MM = Missing Value Source: NWS Daily Summary

Daily Weather History Graph

Daily Weather History Graph

Search for Another Location

Airport or City:

Trip Planner

Search our weather history database for the weather conditions in past years. The results will help you decide how hot, cold, wet, or windy it might be!

Date:

Astronomy

Nov. 23, 2013 Rise Set
Actual Time 6:45 AM EST 5:27 PM EST
Civil Twilight 6:21 AM EST 5:52 PM EST
Nautical Twilight 5:52 AM EST 6:20 PM EST
Astronomical Twilight 5:24 AM EST 6:48 PM EST
Moon 10:42 PM EST (11/23) 11:12 AM EST (11/23)
Length of Visible Light 11h 31m
Length of Day
10h 41m
Waning Gibbous, 70% of the Moon is Illuminated
Nov 23
Waning Gibbous
Nov 25
Last Quarter
Dec 2
New
Dec 9
First Quarter
Dec 17
Full

Hourly Weather History & Observations

Time (EST) Temp. Heat Index Dew Point Humidity Pressure Visibility Wind Dir Wind Speed Gust Speed Precip Events Conditions
12:53 AM 78.1 °F - 66.9 °F 68% 30.06 in 10.0 mi East 9.2 mph - N/A   Mostly Cloudy
1:53 AM 78.1 °F - 66.9 °F 68% 30.05 in 10.0 mi ENE 9.2 mph - N/A   Mostly Cloudy
2:53 AM 78.1 °F - 66.9 °F 68% 30.04 in 10.0 mi East 9.2 mph - N/A   Mostly Cloudy
3:53 AM 79.0 °F - 66.9 °F 66% 30.03 in 10.0 mi ENE 10.4 mph - N/A   Overcast
4:53 AM 77.0 °F - 66.9 °F 71% 30.03 in 10.0 mi ENE 10.4 mph - N/A   Mostly Cloudy
5:53 AM 78.1 °F - 68.0 °F 71% 30.04 in 10.0 mi ENE 8.1 mph - N/A   Mostly Cloudy
6:34 AM 77.0 °F - 68.0 °F 74% 30.04 in 10.0 mi ENE 9.2 mph - N/A   Mostly Cloudy
6:53 AM 78.1 °F - 68.0 °F 71% 30.05 in 10.0 mi ENE 10.4 mph - N/A   Mostly Cloudy
7:53 AM 78.1 °F - 68.0 °F 71% 30.06 in 10.0 mi ENE 9.2 mph - N/A   Mostly Cloudy
8:39 AM 80.6 °F 83.2 °F 68.0 °F 65% 30.08 in 10.0 mi East 13.8 mph - N/A   Mostly Cloudy
8:53 AM 81.0 °F 83.8 °F 68.0 °F 65% 30.08 in 10.0 mi ENE 12.7 mph - N/A   Mostly Cloudy
9:53 AM 81.0 °F 83.8 °F 68.0 °F 65% 30.09 in 10.0 mi East 13.8 mph - N/A   Mostly Cloudy
10:53 AM 82.0 °F 84.9 °F 68.0 °F 62% 30.08 in 10.0 mi NE 10.4 mph - N/A   Mostly Cloudy
11:53 AM 82.9 °F 85.8 °F 68.0 °F 60% 30.05 in 10.0 mi East 13.8 mph - N/A   Mostly Cloudy
12:53 PM 82.9 °F 85.8 °F 68.0 °F 60% 30.02 in 10.0 mi ESE 13.8 mph - N/A   Mostly Cloudy
1:53 PM 81.0 °F 83.3 °F 66.9 °F 62% 30.00 in 10.0 mi ENE 12.7 mph - N/A   Mostly Cloudy
2:53 PM 81.0 °F 83.3 °F 66.9 °F 62% 29.99 in 10.0 mi ESE 9.2 mph - N/A   Scattered Clouds
3:53 PM 81.0 °F 83.3 °F 66.9 °F 62% 29.98 in 10.0 mi East 9.2 mph - N/A   Scattered Clouds
4:53 PM 79.0 °F - 66.0 °F 64% 29.99 in 10.0 mi East 5.8 mph - N/A   Scattered Clouds
5:53 PM 78.1 °F - 66.9 °F 68% 30.00 in 10.0 mi NE 4.6 mph - N/A   Scattered Clouds
6:53 PM 77.0 °F - 66.9 °F 71% 30.01 in 10.0 mi NNE 3.5 mph - N/A   Scattered Clouds
7:53 PM 77.0 °F - 66.0 °F 69% 30.02 in 10.0 mi NE 3.5 mph - N/A   Scattered Clouds
8:53 PM 75.0 °F - 66.0 °F 73% 30.04 in 10.0 mi Calm Calm - N/A   Scattered Clouds
9:53 PM 75.0 °F - 66.0 °F 73% 30.04 in 10.0 mi NNE 4.6 mph - N/A   Partly Cloudy
10:53 PM 73.9 °F - 64.9 °F 73% 30.03 in 10.0 mi Calm Calm - N/A   Partly Cloudy
11:53 PM 70.0 °F - 64.9 °F 84% 30.02 in 10.0 mi Calm Calm - N/A   Partly Cloudy